This demonstration page uses our WeatherBlox Daily Observations layout. Learn more.

36.17497, -115.13722

Hourly Observations for July 19, 2016

Temp ( °F °C ) Dew Point ( °F °C ) Humidity (%) Winds ( mph kmh ) Pressure ( in mb ) Visibility ( mi km ) Precip ( " mm )
12:53 am 00:53 Clear 92 33.3 31 -0.6 11 11 WSW 10 17 29.77 1008 10 16.09344 0 0
1:53 am 01:53 Clear 91 32.8 31 -0.6 12 12 SW 9 15 29.77 1008 10 16.09344 0 0
2:53 am 02:53 Clear 89 31.7 31 -0.6 12 12 SSW 10 17 29.8 1009 10 16.09344 0 0
3:53 am 03:53 Clear 87 30.6 31 -0.6 13 13 SSW 7 11 29.8 1009 10 16.09344 0 0
4:53 am 04:53 Clear 85 29.4 32 0 15 15 Calm 29.83 1010 10 16.09344 0 0
5:53 am 05:53 Sunny 82 27.8 33 0.6 17 17 Calm 29.85 1011 10 16.09344 0 0
6:53 am 06:53 Sunny 84 28.9 35 1.7 17 17 NW 6 9 29.85 1011 10 16.09344 0 0
7:53 am 07:53 Sunny 88 31.1 32 0 13 13 E 5 7 29.85 1011 10 16.09344 0 0
8:53 am 08:53 Sunny 92 33.3 33 0.6 12 12 S 13 20 29.85 1011 10 16.09344 0 0
9:53 am 09:53 Sunny 96 35.6 37 2.8 13 13 S 13 20 29.83 1010 10 16.09344 0 0
10:53 am 10:53 Sunny 99 37.2 42 5.6 14 14 S 17 28 29.8 1009 10 16.09344 0 0
11:53 am 11:53 Sunny 101 38.3 43 6.1 14 14 S 15 24 29.8 1009 10 16.09344 0 0
12:53 pm 12:53 Sunny 103 39.4 39 3.9 11 11 S 12 19 29.77 1008 10 16.09344 0 0
1:53 pm 13:53 Sunny 104 40 39 3.9 11 11 SW 15 24 29.74 1007 10 16.09344 0 0
2:53 pm 14:53 Sunny 105 40.6 37 2.8 10 10 WSW 12 19 29.68 1005 10 16.09344 0 0
3:53 pm 15:53 Sunny 105 40.6 37 2.8 10 10 SW 13 20 29.68 1005 10 16.09344 0 0
4:53 pm 16:53 Sunny 105 40.6 39 3.9 10 10 W 16 26 29.65 1004 10 16.09344 0 0
5:53 pm 17:53 Sunny 104 40 38 3.3 10 10 WSW 15 24 29.65 1004 10 16.09344 0 0
6:53 pm 18:53 Sunny 102 38.9 38 3.3 11 11 SW 18 30 29.68 1005 10 16.09344 0 0
7:53 pm 19:53 Sunny 100 37.8 38 3.3 12 12 WSW 12 19 29.68 1005 10 16.09344 0 0
8:53 pm 20:53 Clear 98 36.7 38 3.3 12 12 SW 8 13 29.68 1005 10 16.09344 0 0
9:53 pm 21:53 Clear 97 36 39 4 13 13 WSW 8 13 29.71 1006 10 16.09344 0 0
10:53 pm 22:53 Clear 95 35 39 3.9 14 14 WSW 6 9 29.74 1007 10 16.09344 0 0
11:53 pm 23:53 Clear 90 32.2 41 5 18 18 S 9 15 29.77 1008 10 16.09344 0 0

Powered by AerisWeather